Time,TemperatureF,DewpointF,PressureIn,WindDirection,WindDirectionDegrees,WindSpeedMPH,WindSpeedGustMPH,Humidity,HourlyPrecipIn,Conditions,Clouds,dailyrainin,SoftwareType,DateUTC
2013-05-28 00:02:00,43.0,-99.9,29.78,NNW,348,5.0,8.0,-999,-99.99,,,-99.99,,2013-05-28 08:02:00,
2013-05-28 00:12:00,43.0,-99.9,29.78,North,357,6.0,7.0,-999,-99.99,,,-99.99,,2013-05-28 08:12:00,
2013-05-28 00:22:00,43.0,-99.9,29.78,North,7,6.0,10.0,-999,-99.99,,,-99.99,,2013-05-28 08:22:00,
2013-05-28 00:32:00,43.0,-99.9,29.78,North,359,6.0,10.0,-999,-99.99,,,-99.99,,2013-05-28 08:32:00,
2013-05-28 00:42:00,43.0,-99.9,29.77,North,352,5.0,7.0,-999,-99.99,,,-99.99,,2013-05-28 08:42:00,
2013-05-28 00:52:00,43.0,-99.9,29.78,North,-999,8.0,12.0,-999,-99.99,,,-99.99,,2013-05-28 08:52:00,
2013-05-28 01:01:00,42.0,-99.9,29.78,North,1,9.0,12.0,-999,-99.99,,,-99.99,,2013-05-28 09:01:00,
2013-05-28 01:11:00,42.0,-99.9,29.77,North,358,9.0,11.0,-999,-99.99,,,-99.99,,2013-05-28 09:11:00,
2013-05-28 01:22:00,42.0,-99.9,29.77,NNW,345,7.0,10.0,-999,-99.99,,,-99.99,,2013-05-28 09:22:00,
2013-05-28 01:33:00,43.0,-99.9,29.77,North,359,6.0,9.0,-999,-99.99,,,-99.99,,2013-05-28 09:33:00,
2013-05-28 01:43:00,43.0,-99.9,29.77,North,6,7.0,11.0,-999,-99.99,,,-99.99,,2013-05-28 09:43:00,
2013-05-28 01:54:00,43.0,-99.9,29.77,North,359,8.0,12.0,-999,-99.99,,,-99.99,,2013-05-28 09:54:00,
2013-05-28 02:03:00,43.0,-99.9,29.77,North,359,9.0,11.0,-999,-99.99,,,-99.99,,2013-05-28 10:03:00,
2013-05-28 02:12:00,43.0,-99.9,29.77,North,357,8.0,11.0,-999,-99.99,,,-99.99,,2013-05-28 10:12:00,
2013-05-28 02:23:00,43.0,-99.9,29.77,North,2,7.0,9.0,-999,-99.99,,,-99.99,,2013-05-28 10:23:00,
2013-05-28 02:32:00,43.0,-99.9,29.77,North,355,6.0,8.0,-999,-99.99,,,-99.99,,2013-05-28 10:32:00,
2013-05-28 02:43:00,43.0,-99.9,29.76,NNW,341,4.0,9.0,-999,-99.99,,,-99.99,,2013-05-28 10:43:00,
2013-05-28 02:53:00,44.0,-99.9,29.76,NNW,331,7.0,11.0,-999,-99.99,,,-99.99,,2013-05-28 10:53:00,
2013-05-28 03:03:00,44.0,-99.9,29.76,NNW,340,4.0,11.0,-999,-99.99,,,-99.99,,2013-05-28 11:03:00,
2013-05-28 03:12:00,44.0,-99.9,29.76,NNW,348,5.0,8.0,-999,-99.99,,,-99.99,,2013-05-28 11:12:00,
2013-05-28 03:23:00,44.0,-99.9,29.76,NNW,335,4.0,8.0,-999,-99.99,,,-99.99,,2013-05-28 11:23:00,
2013-05-28 03:32:00,44.0,-99.9,29.76,NNW,336,6.0,10.0,-999,-99.99,,,-99.99,,2013-05-28 11:32:00,
2013-05-28 03:42:00,44.0,-99.9,29.75,NNW,346,4.0,11.0,-999,-99.99,,,-99.99,,2013-05-28 11:42:00,
2013-05-28 03:52:00,44.0,-99.9,29.76,North,351,4.0,9.0,-999,-99.99,,,-99.99,,2013-05-28 11:52:00,
2013-05-28 04:02:00,44.0,-99.9,29.76,North,351,4.0,9.0,-999,-99.99,,,-99.99,,2013-05-28 12:02:00,
2013-05-28 04:11:00,44.0,-99.9,29.76,North,354,3.0,8.0,-999,-99.99,,,-99.99,,2013-05-28 12:11:00,
2013-05-28 04:22:00,44.0,-99.9,29.76,North,354,3.0,8.0,-999,-99.99,,,-99.99,,2013-05-28 12:22:00,
2013-05-28 04:32:00,44.0,-99.9,29.76,North,354,3.0,8.0,-999,-99.99,,,-99.99,,2013-05-28 12:32:00,
2013-05-28 04:52:00,44.0,-99.9,29.76,NNW,345,3.0,8.0,-999,-99.99,,,-99.99,,2013-05-28 12:52:00,
2013-05-28 05:01:00,44.0,-99.9,29.76,NNW,333,3.0,6.0,-999,-99.99,,,-99.99,,2013-05-28 13:01:00,
2013-05-28 05:11:00,44.0,-99.9,29.76,NNW,333,3.0,6.0,-999,-99.99,,,-99.99,,2013-05-28 13:11:00,
2013-05-28 05:22:00,44.0,-99.9,29.76,North,353,3.0,7.0,-999,-99.99,,,-99.99,,2013-05-28 13:22:00,
2013-05-28 05:32:00,44.0,-99.9,29.76,North,353,3.0,7.0,-999,-99.99,,,-99.99,,2013-05-28 13:32:00,
2013-05-28 05:42:00,44.0,-99.9,29.75,North,353,3.0,9.0,-999,-99.99,,,-99.99,,2013-05-28 13:42:00,
2013-05-28 05:52:00,44.0,-99.9,29.75,NNW,337,3.0,7.0,-999,-99.99,,,-99.99,,2013-05-28 13:52:00,
2013-05-28 06:02:00,44.0,-99.9,29.75,NNW,344,2.0,5.0,-999,-99.99,,,-99.99,,2013-05-28 14:02:00,
2013-05-28 06:12:00,43.0,-99.9,29.75,ENE,58,1.0,5.0,-999,-99.99,,,-99.99,,2013-05-28 14:12:00,
2013-05-28 06:22:00,42.0,-99.9,29.75,South,170,4.0,6.0,-999,-99.99,,,-99.99,,2013-05-28 14:22:00,
2013-05-28 06:32:00,42.0,-99.9,29.75,SSE,159,4.0,6.0,-999,-99.99,,,-99.99,,2013-05-28 14:32:00,
2013-05-28 06:42:00,42.0,-99.9,29.75,SSE,154,3.0,5.0,-999,-99.99,,,-99.99,,2013-05-28 14:42:00,
2013-05-28 06:52:00,41.0,-99.9,29.75,SSE,159,4.0,5.0,-999,-99.99,,,-99.99,,2013-05-28 14:52:00,
2013-05-28 07:01:00,42.0,-99.9,29.75,SE,146,2.0,4.0,-999,-99.99,,,-99.99,,2013-05-28 15:01:00,
2013-05-28 07:11:00,42.0,-99.9,29.75,SSW,195,2.0,3.0,-999,-99.99,,,-99.99,,2013-05-28 15:11:00,
2013-05-28 07:22:00,41.0,-99.9,29.75,South,179,3.0,4.0,-999,-99.99,,,-99.99,,2013-05-28 15:22:00,
2013-05-28 07:33:00,41.0,-99.9,29.75,SSE,165,2.0,3.0,-999,-99.99,,,-99.99,,2013-05-28 15:33:00,
2013-05-28 07:43:00,42.0,-99.9,29.75,SSE,152,2.0,3.0,-999,-99.99,,,-99.99,,2013-05-28 15:43:00,
2013-05-28 07:53:00,42.0,-99.9,29.75,SSE,148,2.0,2.0,-999,-99.99,,,-99.99,,2013-05-28 15:53:00,
2013-05-28 08:03:00,42.0,-99.9,29.75,SSE,161,2.0,3.0,-999,-99.99,,,-99.99,,2013-05-28 16:03:00,
2013-05-28 08:13:00,42.0,-99.9,29.75,South,180,2.0,3.0,-999,-99.99,,,-99.99,,2013-05-28 16:13:00,
2013-05-28 08:23:00,42.0,-99.9,29.75,SSW,201,1.0,2.0,-999,-99.99,,,-99.99,,2013-05-28 16:23:00,
2013-05-28 08:33:00,42.0,-99.9,29.75,SSE,163,2.0,3.0,-999,-99.99,,,-99.99,,2013-05-28 16:33:00,
2013-05-28 08:42:00,42.0,-99.9,29.75,South,179,3.0,3.0,-999,-99.99,,,-99.99,,2013-05-28 16:42:00,
2013-05-28 08:53:00,42.0,-99.9,29.75,South,169,3.0,4.0,-999,-99.99,,,-99.99,,2013-05-28 16:53:00,
2013-05-28 09:02:00,43.0,-99.9,29.75,SSE,165,3.0,4.0,-999,-99.99,,,-99.99,,2013-05-28 17:02:00,
2013-05-28 09:12:00,43.0,-99.9,29.75,SSE,165,4.0,4.0,-999,-99.99,,,-99.99,,2013-05-28 17:12:00,
2013-05-28 09:22:00,43.0,-99.9,29.75,South,180,4.0,5.0,-999,-99.99,,,-99.99,,2013-05-28 17:22:00,
2013-05-28 09:32:00,44.0,-99.9,29.75,South,190,2.0,4.0,-999,-99.99,,,-99.99,,2013-05-28 17:32:00,
2013-05-28 09:42:00,43.0,-99.9,29.75,South,176,3.0,4.0,-999,-99.99,,,-99.99,,2013-05-28 17:42:00,
2013-05-28 09:52:00,44.0,-99.9,29.75,South,176,3.0,4.0,-999,-99.99,,,-99.99,,2013-05-28 17:52:00,
2013-05-28 10:01:00,44.0,-99.9,29.75,South,176,2.0,3.0,-999,-99.99,,,-99.99,,2013-05-28 18:01:00,
2013-05-28 10:11:00,44.0,-99.9,29.74,South,187,2.0,2.0,-999,-99.99,,,-99.99,,2013-05-28 18:11:00,
2013-05-28 10:22:00,45.0,-99.9,29.74,SW,215,0.0,4.0,-999,-99.99,,,-99.99,,2013-05-28 18:22:00,
2013-05-28 10:32:00,45.0,-99.9,29.74,SE,139,2.0,4.0,-999,-99.99,,,-99.99,,2013-05-28 18:32:00,
2013-05-28 10:43:00,46.0,-99.9,29.74,South,170,4.0,5.0,-999,-99.99,,,-99.99,,2013-05-28 18:43:00,
2013-05-28 10:52:00,46.0,-99.9,29.74,SSE,151,3.0,5.0,-999,-99.99,,,-99.99,,2013-05-28 18:52:00,
2013-05-28 11:01:00,46.0,-99.9,29.74,SE,145,3.0,5.0,-999,-99.99,,,-99.99,,2013-05-28 19:01:00,
2013-05-28 11:11:00,46.0,-99.9,29.74,South,182,3.0,4.0,-999,-99.99,,,-99.99,,2013-05-28 19:11:00,
2013-05-28 11:21:00,47.0,-99.9,29.74,SSE,163,3.0,7.0,-999,-99.99,,,-99.99,,2013-05-28 19:21:00,
2013-05-28 11:32:00,46.0,-99.9,29.74,SSW,209,4.0,5.0,-999,-99.99,,,-99.99,,2013-05-28 19:32:00,
2013-05-28 11:42:00,47.0,-99.9,29.74,South,187,2.0,5.0,-999,-99.99,,,-99.99,,2013-05-28 19:42:00,
2013-05-28 11:52:00,47.0,-99.9,29.73,South,191,2.0,4.0,-999,-99.99,,,-99.99,,2013-05-28 19:52:00,
2013-05-28 12:02:00,49.0,-99.9,29.73,WSW,249,-999.0,3.0,-999,-99.99,,,-99.99,,2013-05-28 20:02:00,
2013-05-28 12:11:00,48.0,-99.9,29.73,NNW,327,3.0,4.0,-999,-99.99,,,-99.99,,2013-05-28 20:11:00,
2013-05-28 12:22:00,49.0,-99.9,29.72,NNE,14,1.0,5.0,-999,-99.99,,,-99.99,,2013-05-28 20:22:00,
2013-05-28 12:32:00,50.0,-99.9,29.72,NW,307,1.0,4.0,-999,-99.99,,,-99.99,,2013-05-28 20:32:00,
2013-05-28 12:42:00,51.0,-99.9,29.72,West,261,3.0,4.0,-999,-99.99,,,-99.99,,2013-05-28 20:42:00,
2013-05-28 12:52:00,51.0,-99.9,29.72,NW,311,1.0,4.0,-999,-99.99,,,-99.99,,2013-05-28 20:52:00,
2013-05-28 13:02:00,50.0,-99.9,29.72,NW,318,2.0,3.0,-999,-99.99,,,-99.99,,2013-05-28 21:02:00,
2013-05-28 13:11:00,49.0,-99.9,29.72,NNW,330,4.0,6.0,-999,-99.99,,,-99.99,,2013-05-28 21:11:00,
2013-05-28 13:22:00,51.0,-99.9,29.72,NNW,335,4.0,6.0,-999,-99.99,,,-99.99,,2013-05-28 21:22:00,
2013-05-28 13:33:00,51.0,-99.9,29.72,North,351,4.0,6.0,-999,-99.99,,,-99.99,,2013-05-28 21:33:00,
2013-05-28 13:43:00,51.0,-99.9,29.71,North,355,6.0,8.0,-999,-99.99,,,-99.99,,2013-05-28 21:43:00,
2013-05-28 13:53:00,51.0,-99.9,29.71,NNE,14,4.0,7.0,-999,-99.99,,,-99.99,,2013-05-28 21:53:00,
2013-05-28 14:02:00,52.0,-99.9,29.71,North,353,4.0,6.0,-999,-99.99,,,-99.99,,2013-05-28 22:02:00,
2013-05-28 14:13:00,52.0,-99.9,29.71,North,356,5.0,7.0,-999,-99.99,,,-99.99,,2013-05-28 22:13:00,
2013-05-28 14:22:00,51.0,-99.9,29.71,North,356,7.0,8.0,-999,-99.99,,,-99.99,,2013-05-28 22:22:00,
2013-05-28 14:33:00,52.0,-99.9,29.71,North,358,5.0,8.0,-999,-99.99,,,-99.99,,2013-05-28 22:33:00,
2013-05-28 14:42:00,53.0,-99.9,29.71,NNE,12,5.0,7.0,-999,-99.99,,,-99.99,,2013-05-28 22:42:00,
2013-05-28 14:52:00,53.0,-99.9,29.70,NNE,20,6.0,7.0,-999,-99.99,,,-99.99,,2013-05-28 22:52:00,
2013-05-28 15:02:00,53.0,-99.9,29.71,NNE,17,5.0,7.0,-999,-99.99,,,-99.99,,2013-05-28 23:02:00,
2013-05-28 15:11:00,51.0,-99.9,29.71,North,4,6.0,10.0,-999,-99.99,,,-99.99,,2013-05-28 23:11:00,
2013-05-28 15:22:00,49.0,-99.9,29.71,NNE,15,9.0,11.0,-999,-99.99,,,-99.99,,2013-05-28 23:22:00,
2013-05-28 15:32:00,50.0,-99.9,29.70,NNE,18,7.0,9.0,-999,-99.99,,,-99.99,,2013-05-28 23:32:00,
2013-05-28 15:42:00,51.0,-99.9,29.71,NNE,22,6.0,8.0,-999,-99.99,,,-99.99,,2013-05-28 23:42:00,
2013-05-28 15:52:00,51.0,-99.9,29.70,North,2,4.0,7.0,-999,-99.99,,,-99.99,,2013-05-28 23:52:00,
2013-05-28 16:02:00,52.0,-99.9,29.70,North,1,4.0,6.0,-999,-99.99,,,-99.99,,2013-05-29 00:02:00,
2013-05-28 16:11:00,52.0,-99.9,29.70,North,-999,5.0,8.0,-999,-99.99,,,-99.99,,2013-05-29 00:11:00,
2013-05-28 16:22:00,52.0,-99.9,29.70,NNE,15,5.0,9.0,-999,-99.99,,,-99.99,,2013-05-29 00:22:00,
2013-05-28 16:32:00,52.0,-99.9,29.70,North,3,4.0,7.0,-999,-99.99,,,-99.99,,2013-05-29 00:32:00,
2013-05-28 16:42:00,53.0,-99.9,29.70,NNE,13,4.0,7.0,-999,-99.99,,,-99.99,,2013-05-29 00:42:00,
2013-05-28 16:52:00,52.0,-99.9,29.70,North,358,5.0,7.0,-999,-99.99,,,-99.99,,2013-05-29 00:52:00,
2013-05-28 17:01:00,52.0,-99.9,29.70,North,358,6.0,7.0,-999,-99.99,,,-99.99,,2013-05-29 01:01:00,
2013-05-28 17:11:00,54.0,-99.9,29.69,North,349,4.0,7.0,-999,-99.99,,,-99.99,,2013-05-29 01:11:00,
2013-05-28 17:22:00,55.0,-99.9,29.69,North,350,4.0,5.0,-999,-99.99,,,-99.99,,2013-05-29 01:22:00,
2013-05-28 17:32:00,54.0,-99.9,29.69,North,353,6.0,8.0,-999,-99.99,,,-99.99,,2013-05-29 01:32:00,
2013-05-28 17:42:00,52.0,-99.9,29.69,North,359,9.0,10.0,-999,-99.99,,,-99.99,,2013-05-29 01:42:00,
2013-05-28 17:52:00,54.0,-99.9,29.69,North,7,7.0,8.0,-999,-99.99,,,-99.99,,2013-05-29 01:52:00,
2013-05-28 18:02:00,54.0,-99.9,29.68,North,360,5.0,8.0,-999,-99.99,,,-99.99,,2013-05-29 02:02:00,
2013-05-28 18:12:00,56.0,-99.9,29.67,North,5,2.0,3.0,-999,-99.99,,,-99.99,,2013-05-29 02:12:00,
2013-05-28 18:22:00,55.0,-99.9,29.68,NNE,30,4.0,6.0,-999,-99.99,,,-99.99,,2013-05-29 02:22:00,
2013-05-28 18:32:00,54.0,-99.9,29.68,North,352,6.0,9.0,-999,-99.99,,,-99.99,,2013-05-29 02:32:00,
2013-05-28 18:42:00,54.0,-99.9,29.68,NNE,12,7.0,10.0,-999,-99.99,,,-99.99,,2013-05-29 02:42:00,
2013-05-28 18:52:00,53.0,-99.9,29.68,North,1,8.0,10.0,-999,-99.99,,,-99.99,,2013-05-29 02:52:00,
2013-05-28 19:02:00,54.0,-99.9,29.68,North,353,6.0,7.0,-999,-99.99,,,-99.99,,2013-05-29 03:02:00,
2013-05-28 19:12:00,55.0,-99.9,29.67,North,3,4.0,7.0,-999,-99.99,,,-99.99,,2013-05-29 03:12:00,
2013-05-28 19:22:00,56.0,-99.9,29.67,North,360,5.0,6.0,-999,-99.99,,,-99.99,,2013-05-29 03:22:00,
2013-05-28 19:33:00,58.0,-99.9,29.67,NNW,348,2.0,6.0,-999,-99.99,,,-99.99,,2013-05-29 03:33:00,
2013-05-28 19:43:00,59.0,-99.9,29.67,WNW,303,1.0,2.0,-999,-99.99,,,-99.99,,2013-05-29 03:43:00,
2013-05-28 19:53:00,58.0,-99.9,29.67,North,10,2.0,3.0,-999,-99.99,,,-99.99,,2013-05-29 03:53:00,
2013-05-28 20:03:00,57.0,-99.9,29.67,East,81,1.0,2.0,-999,-99.99,,,-99.99,,2013-05-29 04:03:00,
2013-05-28 20:13:00,57.0,-99.9,29.67,SSW,196,-999.0,3.0,-999,-99.99,,,-99.99,,2013-05-29 04:13:00,
2013-05-28 20:23:00,57.0,-99.9,29.67,NW,312,0.0,2.0,-999,-99.99,,,-99.99,,2013-05-29 04:23:00,
2013-05-28 20:33:00,57.0,-99.9,29.67,WNW,301,1.0,2.0,-999,-99.99,,,-99.99,,2013-05-29 04:33:00,
2013-05-28 20:42:00,57.0,-99.9,29.67,ENE,62,-999.0,2.0,-999,-99.99,,,-99.99,,2013-05-29 04:42:00,
2013-05-28 20:53:00,55.0,-99.9,29.67,SE,129,1.0,4.0,-999,-99.99,,,-99.99,,2013-05-29 04:53:00,
2013-05-28 21:03:00,55.0,-99.9,29.67,SW,224,1.0,2.0,-999,-99.99,,,-99.99,,2013-05-29 05:03:00,
2013-05-28 21:12:00,55.0,-99.9,29.66,SSW,211,4.0,5.0,-999,-99.99,,,-99.99,,2013-05-29 05:12:00,
2013-05-28 21:22:00,57.0,-99.9,29.67,SE,139,2.0,4.0,-999,-99.99,,,-99.99,,2013-05-29 05:22:00,
2013-05-28 21:33:00,56.0,-99.9,29.66,WNW,283,1.0,3.0,-999,-99.99,,,-99.99,,2013-05-29 05:33:00,
2013-05-28 21:42:00,56.0,-99.9,29.65,South,175,3.0,4.0,-999,-99.99,,,-99.99,,2013-05-29 05:42:00,
2013-05-28 21:52:00,57.0,-99.9,29.65,West,268,1.0,4.0,-999,-99.99,,,-99.99,,2013-05-29 05:52:00,
2013-05-28 22:02:00,57.0,-99.9,29.66,WNW,282,0.0,2.0,-999,-99.99,,,-99.99,,2013-05-29 06:02:00,
2013-05-28 22:12:00,56.0,-99.9,29.67,NNE,21,3.0,5.0,-999,-99.99,,,-99.99,,2013-05-29 06:12:00,
2013-05-28 22:22:00,57.0,-99.9,29.67,ENE,63,-999.0,3.0,-999,-99.99,,,-99.99,,2013-05-29 06:22:00,
2013-05-28 22:32:00,56.0,-99.9,29.67,East,87,4.0,6.0,-999,-99.99,,,-99.99,,2013-05-29 06:32:00,
2013-05-28 22:42:00,55.0,-99.9,29.67,South,190,1.0,4.0,-999,-99.99,,,-99.99,,2013-05-29 06:42:00,
2013-05-28 22:52:00,55.0,-99.9,29.67,North,7,3.0,4.0,-999,-99.99,,,-99.99,,2013-05-29 06:52:00,
2013-05-28 23:01:00,55.0,-99.9,29.67,North,10,3.0,4.0,-999,-99.99,,,-99.99,,2013-05-29 07:01:00,
2013-05-28 23:12:00,55.0,-99.9,29.67,East,91,-999.0,1.0,-999,-99.99,,,-99.99,,2013-05-29 07:12:00,
2013-05-28 23:22:00,53.0,-99.9,29.67,SSW,201,1.0,6.0,-999,-99.99,,,-99.99,,2013-05-29 07:22:00,
2013-05-28 23:35:00,53.0,-99.9,29.67,WSW,249,-999.0,2.0,-999,-99.99,,,-99.99,,2013-05-29 07:35:00,
2013-05-28 23:42:00,53.0,-99.9,29.67,SSE,163,-999.0,3.0,-999,-99.99,,,-99.99,,2013-05-29 07:42:00,
2013-05-28 23:53:00,53.0,-99.9,29.67,SSW,209,1.0,2.0,-999,-99.99,,,-99.99,,2013-05-29 07:53:00,